ANA1217 RJFF-ROAH

Flight info

Callsign ANA1217
Flight time 1h 28m
Altitude 34000
Route RJFF N0455F340 YAMEK1 MIZMA G339 SASIK Y501 KOSHI Y25 MOMPA M750 INVAM CDO2 ROAH
Aircraft B738/M-SDE2FGILORVWXY/L

Departure

Time 2026-04-26 13:27
Airport Fukuoka Airport (RJFF)

Arrival

Time 2026-04-26 14:55
Airport Naha International Airport (ROAH)
Time Latitude Longitude Altitude Speed Heading
2026-04-26 13:02 33.58634 130.44486 30 ft 0 kts 244°
2026-04-26 13:14 33.58639 130.44497 30 ft 2 kts 242°
2026-04-26 13:14 33.58646 130.44515 30 ft 2 kts 244°
2026-04-26 13:15 33.58653 130.44533 28 ft 2 kts 246°
2026-04-26 13:15 33.58659 130.44551 29 ft 2 kts 256°
2026-04-26 13:15 33.58658 130.44570 28 ft 2 kts 323°
2026-04-26 13:15 33.58653 130.44574 29 ft 0 kts 331°
2026-04-26 13:21 33.58657 130.44572 28 ft 2 kts 331°
2026-04-26 13:21 33.58672 130.44561 30 ft 6 kts 328°
2026-04-26 13:21 33.58750 130.44507 29 ft 14 kts 330°
2026-04-26 13:21 33.58830 130.44452 28 ft 14 kts 329°
2026-04-26 13:22 33.58901 130.44457 28 ft 6 kts 46°
2026-04-26 13:22 33.58923 130.44504 28 ft 6 kts 64°
2026-04-26 13:22 33.58947 130.44549 28 ft 7 kts 39°
2026-04-26 13:22 33.59001 130.44558 28 ft 12 kts 345°
2026-04-26 13:23 33.59090 130.44499 27 ft 17 kts 330°
2026-04-26 13:23 33.59199 130.44425 26 ft 18 kts 330°
2026-04-26 13:23 33.59306 130.44351 26 ft 17 kts 330°
2026-04-26 13:23 33.59398 130.44289 28 ft 13 kts 335°
2026-04-26 13:24 33.59482 130.44259 26 ft 12 kts 349°
2026-04-26 13:24 33.59565 130.44241 26 ft 11 kts 348°
2026-04-26 13:24 33.59615 130.44235 24 ft 5 kts
2026-04-26 13:24 33.59617 130.44236 26 ft 0 kts 10°
2026-04-26 13:25 33.59618 130.44236 26 ft 1 kts 11°
2026-04-26 13:25 33.59645 130.44252 25 ft 7 kts 36°
2026-04-26 13:26 33.59672 130.44297 23 ft 1 kts 81°
2026-04-26 13:26 33.59667 130.44323 23 ft 8 kts 114°
2026-04-26 13:26 33.59598 130.44384 24 ft 19 kts 151°
2026-04-26 13:26 33.59303 130.44584 27 ft 81 kts 150°
2026-04-26 13:27 33.58635 130.45040 33 ft 137 kts 150°
2026-04-26 13:27 33.57700 130.45680 246 ft 164 kts 150°
2026-04-26 13:27 33.56703 130.46361 827 ft 170 kts 151°
2026-04-26 13:27 33.55633 130.47020 1432 ft 175 kts 153°
2026-04-26 13:28 33.54537 130.47664 2143 ft 178 kts 152°
2026-04-26 13:28 33.53385 130.48374 2768 ft 188 kts 151°
2026-04-26 13:28 33.52180 130.49121 3313 ft 208 kts 151°
2026-04-26 13:28 33.50817 130.49970 3528 ft 233 kts 151°
2026-04-26 13:29 33.49330 130.50903 3909 ft 247 kts 152°
2026-04-26 13:29 33.48310 130.51541 4291 ft 251 kts 151°
2026-04-26 13:29 33.46204 130.52858 5003 ft 265 kts 152°
2026-04-26 13:29 33.44515 130.53912 5495 ft 279 kts 152°
2026-04-26 13:30 33.42778 130.54994 6317 ft 283 kts 152°
2026-04-26 13:30 33.41033 130.56079 7139 ft 284 kts 152°
2026-04-26 13:30 33.39261 130.57180 7941 ft 288 kts 152°
2026-04-26 13:30 33.37475 130.58290 8747 ft 291 kts 152°
2026-04-26 13:31 33.35665 130.59413 9560 ft 294 kts 152°
2026-04-26 13:31 33.33829 130.60552 10255 ft 301 kts 153°
2026-04-26 13:31 33.31900 130.61748 10481 ft 325 kts 153°
2026-04-26 13:31 33.29822 130.63036 10667 ft 348 kts 153°
2026-04-26 13:32 33.27604 130.64411 10865 ft 369 kts 153°
2026-04-26 13:32 33.25322 130.65825 11331 ft 378 kts 153°
2026-04-26 13:32 33.22967 130.67284 11982 ft 383 kts 153°
2026-04-26 13:32 33.20591 130.68756 12672 ft 386 kts 154°
2026-04-26 13:33 33.18196 130.70239 13347 ft 390 kts 154°
2026-04-26 13:33 33.15769 130.71739 13953 ft 394 kts 154°
2026-04-26 13:33 33.13316 130.73247 14525 ft 398 kts 155°
2026-04-26 13:33 33.10715 130.74389 15070 ft 400 kts 168°
2026-04-26 13:34 33.07953 130.74875 15649 ft 401 kts 179°
2026-04-26 13:34 33.05163 130.74725 16202 ft 403 kts 188°
2026-04-26 13:34 33.02369 130.74341 16756 ft 407 kts 189°
2026-04-26 13:34 33.00499 130.74072 17116 ft 409 kts 189°
2026-04-26 13:35 32.96684 130.73553 17828 ft 415 kts 188°
2026-04-26 13:35 32.93805 130.73193 18336 ft 419 kts 188°
2026-04-26 13:35 32.90894 130.72839 18823 ft 421 kts 188°
2026-04-26 13:35 32.87963 130.72485 19354 ft 423 kts 188°
2026-04-26 13:36 32.85065 130.72134 19859 ft 425 kts 188°
2026-04-26 13:36 32.82108 130.71775 20356 ft 427 kts 188°
2026-04-26 13:36 32.79145 130.71415 20835 ft 429 kts 188°
2026-04-26 13:36 32.76150 130.71051 21297 ft 432 kts 188°
2026-04-26 13:37 32.73152 130.70687 21733 ft 435 kts 188°
2026-04-26 13:37 32.70131 130.70320 22164 ft 437 kts 188°
2026-04-26 13:37 32.67092 130.69951 22579 ft 440 kts 188°
2026-04-26 13:37 32.64030 130.69580 22983 ft 443 kts 188°
2026-04-26 13:38 32.60955 130.69208 23388 ft 446 kts 188°
2026-04-26 13:38 32.57896 130.68838 23725 ft 449 kts 188°
2026-04-26 13:38 32.54779 130.68461 24024 ft 452 kts 189°
2026-04-26 13:38 32.51617 130.68079 24322 ft 456 kts 189°
2026-04-26 13:39 32.48441 130.67695 24623 ft 459 kts 189°
2026-04-26 13:39 32.45253 130.67310 24930 ft 462 kts 189°
2026-04-26 13:39 32.42042 130.66923 25218 ft 465 kts 189°
2026-04-26 13:39 32.38808 130.66533 25513 ft 468 kts 189°
2026-04-26 13:40 32.35611 130.66149 25787 ft 470 kts 189°
2026-04-26 13:40 32.32336 130.65755 26086 ft 473 kts 190°
2026-04-26 13:40 32.29047 130.65360 26366 ft 475 kts 190°
2026-04-26 13:40 32.25740 130.64962 26636 ft 478 kts 190°
2026-04-26 13:41 32.22428 130.64565 26903 ft 479 kts 190°
2026-04-26 13:41 32.19120 130.64171 27357 ft 477 kts 191°
2026-04-26 13:41 32.15793 130.63771 27440 ft 484 kts 191°
2026-04-26 13:41 32.12431 130.63367 27583 ft 488 kts 191°
2026-04-26 13:42 32.09040 130.62962 27832 ft 490 kts 191°
2026-04-26 13:42 32.05678 130.62563 28120 ft 491 kts 191°
2026-04-26 13:42 32.02257 130.62156 28441 ft 491 kts 191°
2026-04-26 13:42 31.98850 130.61750 28839 ft 490 kts 191°
2026-04-26 13:43 31.95462 130.61348 29259 ft 488 kts 191°
2026-04-26 13:43 31.92117 130.60951 29653 ft 487 kts 191°
2026-04-26 13:43 31.88743 130.60550 30023 ft 487 kts 191°
2026-04-26 13:43 31.85370 130.60150 30375 ft 485 kts 192°
2026-04-26 13:44 31.82021 130.59753 30823 ft 481 kts 192°
2026-04-26 13:44 31.78697 130.59360 31310 ft 476 kts 192°
2026-04-26 13:44 31.75411 130.58971 31756 ft 472 kts 192°
2026-04-26 13:44 31.72182 130.58586 32138 ft 468 kts 192°
2026-04-26 13:45 31.68997 130.57939 32476 ft 460 kts 200°
2026-04-26 13:45 31.65995 130.56747 32845 ft 450 kts 208°
2026-04-26 13:45 31.63106 130.55353 33244 ft 447 kts 208°
2026-04-26 13:45 31.60261 130.54006 33639 ft 444 kts 207°
2026-04-26 13:46 31.57384 130.52690 33920 ft 443 kts 207°
2026-04-26 13:46 31.51585 130.50143 33915 ft 445 kts 206°
2026-04-26 13:47 31.46763 130.48043 33920 ft 443 kts 206°
2026-04-26 13:47 31.40982 130.45513 33920 ft 442 kts 206°
2026-04-26 13:48 31.35222 130.42984 33922 ft 442 kts 206°
2026-04-26 13:48 31.29483 130.40468 33919 ft 442 kts 206°
2026-04-26 13:49 31.23729 130.37882 33923 ft 441 kts 208°
2026-04-26 13:49 31.18043 130.35177 33916 ft 440 kts 208°
2026-04-26 13:50 31.12395 130.32504 33920 ft 441 kts 208°
2026-04-26 13:50 31.06686 130.29827 33922 ft 441 kts 207°
2026-04-26 13:51 31.00970 130.27159 33925 ft 442 kts 207°
2026-04-26 13:51 30.95278 130.24506 33921 ft 442 kts 207°
2026-04-26 13:52 30.89548 130.21837 33921 ft 443 kts 207°
2026-04-26 13:52 30.83830 130.19177 33920 ft 443 kts 207°
2026-04-26 13:53 30.78142 130.16534 33925 ft 443 kts 207°
2026-04-26 13:53 30.72409 130.13873 33922 ft 443 kts 207°
2026-04-26 13:54 30.66674 130.11215 33921 ft 442 kts 207°
2026-04-26 13:54 30.60991 130.08583 33925 ft 442 kts 207°
2026-04-26 13:55 30.53359 130.05087 33924 ft 442 kts 207°
2026-04-26 13:56 30.43769 130.00784 33922 ft 442 kts 207°
2026-04-26 13:56 30.38063 129.98218 33925 ft 442 kts 207°
2026-04-26 13:57 30.32515 129.95747 33927 ft 442 kts 206°
2026-04-26 13:57 30.26744 129.93347 33928 ft 443 kts 205°
2026-04-26 13:58 30.20935 129.90965 33926 ft 443 kts 205°
2026-04-26 13:58 30.15110 129.88557 33929 ft 442 kts 206°
2026-04-26 13:59 30.09349 129.86167 33931 ft 442 kts 206°
2026-04-26 13:59 30.03542 129.83761 33929 ft 442 kts 206°
2026-04-26 14:00 29.92081 129.78693 33922 ft 440 kts 208°
2026-04-26 14:01 29.86437 129.76046 33930 ft 439 kts 208°
2026-04-26 14:01 29.80752 129.73409 33937 ft 439 kts 208°
2026-04-26 14:02 29.75069 129.70793 33931 ft 439 kts 208°
2026-04-26 14:02 29.69421 129.68200 33937 ft 439 kts 208°
2026-04-26 14:03 29.63728 129.65590 33939 ft 439 kts 208°
2026-04-26 14:03 29.58057 129.62992 33946 ft 438 kts 208°
2026-04-26 14:04 29.52426 129.60415 33944 ft 438 kts 208°
2026-04-26 14:04 29.46751 129.57820 33946 ft 438 kts 208°
2026-04-26 14:05 29.41075 129.55229 33947 ft 437 kts 208°
2026-04-26 14:05 29.35449 129.52663 33950 ft 437 kts 208°
2026-04-26 14:06 29.29749 129.50178 33952 ft 439 kts 206°
2026-04-26 14:06 29.23974 129.47868 33947 ft 439 kts 206°
2026-04-26 14:07 29.18202 129.45553 33951 ft 439 kts 206°
2026-04-26 14:07 29.12473 129.43228 33959 ft 439 kts 206°
2026-04-26 14:08 29.06716 129.40886 33963 ft 439 kts 206°
2026-04-26 14:08 29.00960 129.38549 33956 ft 439 kts 206°
2026-04-26 14:09 28.95225 129.36157 33965 ft 438 kts 207°
2026-04-26 14:09 28.89544 129.33641 33966 ft 437 kts 208°
2026-04-26 14:10 28.83874 129.31125 33961 ft 437 kts 207°
2026-04-26 14:10 28.78197 129.28628 33963 ft 437 kts 207°
2026-04-26 14:11 28.69677 129.24899 33965 ft 437 kts 207°
2026-04-26 14:11 28.63998 129.22416 33966 ft 437 kts 207°
2026-04-26 14:12 28.58360 129.19955 33972 ft 437 kts 207°
2026-04-26 14:12 28.52681 129.17478 33976 ft 437 kts 207°
2026-04-26 14:13 28.44167 129.13770 33972 ft 437 kts 207°
2026-04-26 14:14 28.38490 129.11307 33976 ft 437 kts 207°
2026-04-26 14:14 28.32812 129.08848 33976 ft 437 kts 207°
2026-04-26 14:15 28.27128 129.06388 33979 ft 437 kts 207°
2026-04-26 14:15 28.21640 129.04013 33980 ft 436 kts 207°
2026-04-26 14:16 28.15954 129.01557 33983 ft 436 kts 207°
2026-04-26 14:16 28.10308 128.99018 33981 ft 435 kts 208°
2026-04-26 14:17 28.04731 128.96443 33986 ft 435 kts 208°
2026-04-26 14:17 27.99125 128.93872 33983 ft 435 kts 208°
2026-04-26 14:18 27.93514 128.91311 33979 ft 435 kts 208°
2026-04-26 14:18 27.87891 128.88778 33987 ft 436 kts 207°
2026-04-26 14:19 27.82209 128.86366 33984 ft 436 kts 206°
2026-04-26 14:19 27.76521 128.83973 33989 ft 436 kts 207°
2026-04-26 14:20 27.70840 128.81568 33989 ft 436 kts 207°
2026-04-26 14:20 27.65160 128.79158 33991 ft 436 kts 207°
2026-04-26 14:21 27.59482 128.76750 33988 ft 436 kts 207°
2026-04-26 14:21 27.53802 128.74343 33991 ft 436 kts 207°
2026-04-26 14:22 27.48117 128.71937 33998 ft 436 kts 207°
2026-04-26 14:22 27.45444 128.70421 33981 ft 426 kts 220°
2026-04-26 14:22 27.43150 128.68369 34001 ft 419 kts 228°
2026-04-26 14:23 27.39673 128.63242 34008 ft 410 kts 243°
2026-04-26 14:23 27.36804 128.57679 33992 ft 412 kts 243°
2026-04-26 14:24 27.33929 128.52136 33994 ft 413 kts 243°
2026-04-26 14:24 27.30990 128.46533 33439 ft 421 kts 243°
2026-04-26 14:24 27.29499 128.43706 32787 ft 419 kts 243°
2026-04-26 14:25 27.28011 128.40890 32099 ft 418 kts 243°
2026-04-26 14:25 27.26523 128.38076 31359 ft 419 kts 242°
2026-04-26 14:25 27.25032 128.35257 30616 ft 420 kts 242°
2026-04-26 14:25 27.23538 128.32434 29878 ft 421 kts 242°
2026-04-26 14:26 27.22051 128.29627 29263 ft 416 kts 242°
2026-04-26 14:26 27.20580 128.26853 28685 ft 411 kts 242°
2026-04-26 14:26 27.19128 128.24115 28121 ft 406 kts 242°
2026-04-26 14:26 27.17691 128.21406 27590 ft 401 kts 242°
2026-04-26 14:27 27.16269 128.18726 27048 ft 397 kts 242°
2026-04-26 14:27 27.14863 128.16076 26521 ft 393 kts 242°
2026-04-26 14:27 27.13467 128.13447 25998 ft 390 kts 242°
2026-04-26 14:27 27.12080 128.10840 25483 ft 387 kts 242°
2026-04-26 14:28 27.10704 128.08255 24902 ft 386 kts 242°
2026-04-26 14:28 27.09332 128.05678 24387 ft 383 kts 242°
2026-04-26 14:28 27.07966 128.03114 23874 ft 381 kts 242°
2026-04-26 14:28 27.06608 128.00565 23316 ft 380 kts 242°
2026-04-26 14:29 27.05257 127.98031 22756 ft 377 kts 242°
2026-04-26 14:29 27.03917 127.95520 22226 ft 374 kts 242°
2026-04-26 14:29 27.02332 127.93209 21702 ft 378 kts 226°
2026-04-26 14:29 27.00156 127.91540 21216 ft 383 kts 211°
2026-04-26 14:30 26.97632 127.90532 20719 ft 390 kts 196°
2026-04-26 14:30 26.94908 127.90313 20238 ft 394 kts 185°
2026-04-26 14:30 26.92161 127.90374 19720 ft 395 kts 183°
2026-04-26 14:30 26.89457 127.90495 19236 ft 393 kts 182°
2026-04-26 14:31 26.86729 127.90625 18729 ft 392 kts 182°
2026-04-26 14:31 26.84005 127.90744 18216 ft 391 kts 183°
2026-04-26 14:31 26.81292 127.90848 17664 ft 389 kts 183°
2026-04-26 14:31 26.78600 127.90941 17153 ft 386 kts 183°
2026-04-26 14:32 26.75921 127.91027 16649 ft 383 kts 183°
2026-04-26 14:32 26.73263 127.91108 16154 ft 381 kts 183°
2026-04-26 14:32 26.70623 127.91186 15667 ft 378 kts 182°
2026-04-26 14:32 26.68000 127.91264 15187 ft 376 kts 182°
2026-04-26 14:33 26.66264 127.91315 14868 ft 375 kts 182°
2026-04-26 14:33 26.63657 127.91391 14373 ft 375 kts 182°
2026-04-26 14:33 26.61055 127.91467 13869 ft 374 kts 182°
2026-04-26 14:33 26.57612 127.91569 13177 ft 372 kts 182°
2026-04-26 14:34 26.55863 127.91621 12834 ft 370 kts 182°
2026-04-26 14:34 26.53297 127.91697 12338 ft 368 kts 181°
2026-04-26 14:34 26.50747 127.91772 11860 ft 365 kts 181°
2026-04-26 14:34 26.48223 127.91847 11552 ft 358 kts 181°
2026-04-26 14:35 26.45800 127.91920 11390 ft 347 kts 181°
2026-04-26 14:35 26.43422 127.91991 11237 ft 337 kts 181°
2026-04-26 14:35 26.41115 127.92060 11091 ft 327 kts 181°
2026-04-26 14:35 26.38901 127.91881 10866 ft 315 kts 199°
2026-04-26 14:36 26.36889 127.90979 10495 ft 310 kts 207°
2026-04-26 14:36 26.34932 127.89968 10123 ft 310 kts 208°
2026-04-26 14:36 26.32982 127.88948 9923 ft 304 kts 208°
2026-04-26 14:36 26.31111 127.87975 9916 ft 290 kts 208°
2026-04-26 14:37 26.29313 127.87044 9829 ft 281 kts 208°
2026-04-26 14:37 26.27556 127.86139 9614 ft 276 kts 208°
2026-04-26 14:37 26.25813 127.85243 9301 ft 275 kts 208°
2026-04-26 14:37 26.24074 127.84351 9005 ft 274 kts 208°
2026-04-26 14:38 26.22343 127.83465 8699 ft 273 kts 207°
2026-04-26 14:38 26.20603 127.82575 8304 ft 277 kts 207°
2026-04-26 14:38 26.18846 127.81678 7890 ft 277 kts 207°
2026-04-26 14:38 26.17092 127.80783 7484 ft 277 kts 207°
2026-04-26 14:39 26.15341 127.79891 7004 ft 278 kts 207°
2026-04-26 14:39 26.13577 127.78992 6506 ft 279 kts 207°
2026-04-26 14:39 26.11810 127.78092 5984 ft 280 kts 207°
2026-04-26 14:39 26.10036 127.77189 5470 ft 281 kts 207°
2026-04-26 14:40 26.08280 127.76296 4969 ft 282 kts 207°
2026-04-26 14:40 26.06556 127.75267 4428 ft 281 kts 221°
2026-04-26 14:40 26.05379 127.73574 3912 ft 275 kts 248°
2026-04-26 14:40 26.04954 127.71539 3418 ft 269 kts 269°
2026-04-26 14:41 26.04883 127.69477 2798 ft 271 kts 270°
2026-04-26 14:41 26.05124 127.67460 2499 ft 256 kts 297°
2026-04-26 14:41 26.05363 127.66975 2463 ft 250 kts 307°
2026-04-26 14:41 26.06652 127.65831 2285 ft 234 kts 336°
2026-04-26 14:42 26.08176 127.65278 1989 ft 228 kts 350°
2026-04-26 14:42 26.09713 127.65120 1708 ft 216 kts 356°
2026-04-26 14:42 26.11157 127.65052 1440 ft 200 kts 356°
2026-04-26 14:42 26.12489 127.64980 1180 ft 185 kts 356°
2026-04-26 14:43 26.13738 127.64908 969 ft 180 kts 356°
2026-04-26 14:43 26.15036 127.64835 1421 ft 181 kts 357°
2026-04-26 14:43 26.16361 127.64781 1860 ft 204 kts 354°
2026-04-26 14:43 26.17816 127.64641 2505 ft 213 kts 354°
2026-04-26 14:44 26.19283 127.64508 3069 ft 201 kts 354°
2026-04-26 14:44 26.20737 127.64358 3295 ft 229 kts 354°
2026-04-26 14:44 26.22359 127.64180 3181 ft 240 kts 346°
2026-04-26 14:44 26.23808 127.63346 3147 ft 234 kts 316°
2026-04-26 14:45 26.24761 127.61923 3011 ft 228 kts 303°
2026-04-26 14:45 26.25322 127.60910 2841 ft 227 kts 302°
2026-04-26 14:45 26.26390 127.58921 2526 ft 225 kts 302°
2026-04-26 14:45 26.27188 127.57419 2284 ft 225 kts 303°
2026-04-26 14:46 26.27956 127.55898 2072 ft 227 kts 295°
2026-04-26 14:46 26.28161 127.54141 2012 ft 240 kts 262°
2026-04-26 14:46 26.27469 127.52422 2004 ft 251 kts 232°
2026-04-26 14:46 26.26045 127.51277 2003 ft 257 kts 201°
2026-04-26 14:47 26.24299 127.50897 1994 ft 253 kts 185°
2026-04-26 14:47 26.22581 127.50855 1975 ft 241 kts 181°
2026-04-26 14:47 26.20951 127.50870 1970 ft 228 kts 180°
2026-04-26 14:47 26.19378 127.50890 2006 ft 224 kts 180°
2026-04-26 14:48 26.17826 127.50913 2003 ft 224 kts 180°
2026-04-26 14:48 26.16261 127.50936 1997 ft 225 kts 180°
2026-04-26 14:48 26.14693 127.50958 1989 ft 226 kts 180°
2026-04-26 14:48 26.13144 127.51201 1991 ft 225 kts 164°
2026-04-26 14:49 26.11640 127.51687 1987 ft 225 kts 164°
2026-04-26 14:49 26.10134 127.52150 1979 ft 222 kts 165°
2026-04-26 14:49 26.08661 127.52584 1983 ft 216 kts 165°
2026-04-26 14:49 26.07243 127.52994 1976 ft 212 kts 165°
2026-04-26 14:50 26.05827 127.53402 1996 ft 209 kts 165°
2026-04-26 14:50 26.04459 127.53956 1982 ft 212 kts 144°
2026-04-26 14:50 26.03567 127.55205 2000 ft 210 kts 106°
2026-04-26 14:50 26.03283 127.56840 1997 ft 219 kts 94°
2026-04-26 14:51 26.03106 127.58507 1991 ft 214 kts 93°
2026-04-26 14:51 26.03084 127.60111 1961 ft 201 kts 70°
2026-04-26 14:51 26.03809 127.61373 2003 ft 192 kts 34°
2026-04-26 14:51 26.05013 127.61937 2010 ft 190 kts 15°
2026-04-26 14:52 26.06130 127.62712 1992 ft 193 kts 47°
2026-04-26 14:52 26.06898 127.63928 2008 ft 189 kts 52°
2026-04-26 14:52 26.07623 127.65103 1986 ft 179 kts 51°
2026-04-26 14:52 26.08573 127.65881 1840 ft 173 kts
2026-04-26 14:53 26.09743 127.65692 1722 ft 172 kts 347°
2026-04-26 14:53 26.10893 127.65342 1457 ft 167 kts 343°
2026-04-26 14:53 26.11963 127.65093 1326 ft 149 kts 351°
2026-04-26 14:53 26.12967 127.64991 1066 ft 140 kts 354°
2026-04-26 14:54 26.13908 127.64921 938 ft 129 kts 355°
2026-04-26 14:54 26.14829 127.64849 867 ft 138 kts 354°
2026-04-26 14:54 26.15786 127.64778 636 ft 137 kts 356°
2026-04-26 14:54 26.16712 127.64720 417 ft 131 kts 357°
2026-04-26 14:55 26.17612 127.64680 207 ft 128 kts 357°
2026-04-26 14:55 26.18511 127.64646 27 ft 129 kts 356°
2026-04-26 14:55 26.19291 127.64607 19 ft 87 kts 358°
2026-04-26 14:55 26.19684 127.64601 17 ft 26 kts
2026-04-26 14:56 26.19803 127.64640 17 ft 19 kts 20°
2026-04-26 14:56 26.19918 127.64706 17 ft 17 kts 27°
2026-04-26 14:56 26.20008 127.64758 18 ft 14 kts 25°
2026-04-26 14:56 26.20102 127.64776 18 ft 14 kts 356°
2026-04-26 14:57 26.20194 127.64773 18 ft 13 kts 359°
2026-04-26 14:57 26.20283 127.64769 18 ft 13 kts 357°
2026-04-26 14:57 26.20370 127.64764 19 ft 12 kts 358°
2026-04-26 14:57 26.20455 127.64760 19 ft 12 kts 357°
2026-04-26 14:58 26.20538 127.64757 21 ft 12 kts 358°
2026-04-26 14:58 26.20613 127.64778 19 ft 11 kts 41°
2026-04-26 14:58 26.20635 127.64857 19 ft 11 kts 85°
2026-04-26 14:58 26.20616 127.64898 20 ft 7 kts 142°
2026-04-26 14:59 26.20568 127.64932 19 ft 3 kts 143°
2026-04-26 14:59 26.20552 127.64944 19 ft 0 kts 149°